Miscellaneous Local Product
Issued by NWS North Platte, NE

Home | Current Version | Previous Version | Graphics & Text | Print | Product List | Glossary On
Versions: 1 2 3 4 5 6 7 8 9 10 11 12 13 14 15 16 17 18 19 20 21 22 23 24 25 26 27 28 29 30 31 32 33 34 35 36 37 38 39 40 41 42 43 44 45 46 47 48 49 50
000
AXUS43 KLBF 051410
MISLBF


WESTERN AND NORTH CENTRAL NEBRASKA HOURLY WEATHER ROUNDUP
NATIONAL WEATHER SERVICE NORTH PLATTE NE
800 AM CST THU MAR 05 2015

***STATIONS NOT REPORTING VARIABLES SUCH AS SKY/WEATHER OR
PRESSURE ARE PROVIDED BY THE NEBRASKA DEPARTMENT OF
ROADS...RAWS...AND APRS NETWORKS...AND ARE NOT UNDER
NATIONAL WEATHER SERVICE QUALITY CONTROL***

...OBSERVATIONS IN AND NEAR THE EASTERN PANHANDLE OF NEBRASKA...

CITY           SKY/WX    TMP DP  RH WIND       PRES   REMARKS
PINE RIDGE     PTCLDY    -3  -9  75 CALM      30.17F
CHADRON        PTCLDY    -1  -7  75 SW7       30.19S WCI -14
ALLIANCE       CLEAR      4  -1  80 W7        30.16S WCI  -8
SIDNEY         CLEAR     13   5  70 W9        30.19S WCI   1
WHITECLAY        N/A     -3 -10  72 SE6         N/A  WCI -16
CRESCENT LAKE    N/A     11   5  76 S3          N/A
LISCO            N/A      9   1  68 CALM        N/A
BIG SPRINGS      N/A     10   7  87 W8          N/A  WCI  -2
LEWELLEN         N/A      1  -2  85 CALM        N/A
$$

...OBSERVATIONS IN NORTH CENTRAL NEBRASKA...

CITY           SKY/WX    TMP DP  RH WIND       PRES   REMARKS
VALENTINE      PTCLDY     2  -5  72 CALM      30.26F
THEDFORD       PTCLDY     9   2  73 S9        30.28S WCI  -4
AINSWORTH      PTCLDY     8   1  75 S13       30.28F WCI  -8
O`NEILL        PTCLDY     4  -1  81 S6        30.36S WCI  -7
ORD            PTCLDY     3  -2  79 CALM      30.39R
BROKEN BOW     PTCLDY     5  -2  72 S5        30.35R WCI  -4
BROWNLEE         N/A      1  -4  80 S8          N/A  WCI -14
SPRINGVIEW       N/A      0  -4  83 CALM        N/A
BREWSTER         N/A      7   2  79 CALM        N/A
ROSE             N/A     30  27  86 SE5         N/A  WCI  25
NEWPORT          N/A     15  10  81 S9          N/A  WCI   3
SARGENT          N/A      6   2  82 CALM        N/A
COMSTOCK         N/A      9  -1  65 S8          N/A  WCI  -3
CHAMBERS         N/A      8 -12  40 SW6         N/A  WCI  -2
EWING            N/A      4  -1  80 S3          N/A
$$

...OBSERVATIONS IN SOUTHWEST NEBRASKA AND FAR NORTHEAST COLORADO...

CITY           SKY/WX    TMP DP  RH WIND       PRES   REMARKS
WRAY           FAIR      12   7  79 SW6       30.26S WCI   2
IMPERIAL         N/A      7   2  80 S5        30.28S WCI  -2
OGALLALA       PTCLDY     4   1  88 CALM      30.26S
NORTH PLATTE   PTCLDY     5  -1  76 E3        30.32S
MCCOOK         CLEAR     10   2  69 E3        30.35S
LEXINGTON      PTCLDY     8   2  78 S3        30.39R
PAXTON           N/A      7   2  80 CALM        N/A
BRADY            N/A      5   0  79 CALM        N/A
GOTHENBURG       N/A      6   0  74 CALM        N/A
CALLAWAY         N/A      7   1  76 S16         N/A  WCI -11
$$

...NORTH PLATTE AREA...

CITY           SKY/WX    TMP DP  RH WIND       PRES   REMARKS
AIRPORT        PTCLDY     5  -1  76 E3        30.32S
DOWNTOWN         N/A      8  -1  68 S6          N/A  WCI  -2
$$

...SOME WEATHER OBSERVATIONS FROM AROUND THE REGION...

CITY           SKY/WX    TMP DP  RH WIND       PRES   REMARKS
DENVER         PTCLDY    18   1  47 S17       30.16R WCI   3
LARAMIE        PTCLDY    18   4  54 SW18      30.12R WCI   2
CHEYENNE       PTCLDY    24   6  46 W12       30.11R WCI  13
SCOTTSBLUFF    PTCLDY     8   3  80 NW6       30.19S WCI  -2
RAPID CITY     CLEAR      4  -1  80 CALM      30.13S
PIERRE         PTCLDY    -5  -8  87 E5        30.28F WCI -16
WINNER         FAIR       9  -2  61 S12       30.29F WCI  -6
SIOUX FALLS    MOSUNNY   -4  -8  83 CALM      30.45S
OMAHA          SUNNY      8   1  73 CALM      30.56R
GRAND ISLAND   PTCLDY     9   1  70 S9        30.45R WCI  -4
KANSAS CITY    FAIR      12  -1  56 N8        30.55R WCI   0
WICHITA        SUNNY     19  11  70 CALM      30.51S
HAYS           CLEAR     10  -2  56 CALM      30.41R
LIBERAL        CLEAR      9   3  78 W5        30.42R WCI   0
GOODLAND       CLEAR     16   9  74 W10       30.27F WCI   4
$$



USA.gov is the U.S. government's official web portal to all federal, state and local government web resources and services.